Berlin, NH

4:38 PM EST on January 19, 2018 (GMT -0500)
Berlin Municipal

Weather History for KBML - May, 2013

Change the Weather History Date:

Thursday, May 2, 2013

  Actual Average Record
Temperature  
Mean Temperature 54 °F -  
Max Temperature 80 °F 59 °F 84 °F (2001)
Min Temperature 30 °F 30 °F 23 °F (2008)
Degree Days  
Heating Degree Days 10    
Growing Degree Days 4 (Base 50)    
Moisture  
Dew Point 35 °F    
Average Humidity 59    
Maximum Humidity 92    
Minimum Humidity 20    
Precipitation  
Precipitation 0.00 in - - ()
Sea Level Pressure  
Sea Level Pressure 30.44 in    
Wind  
Wind Speed 2 mph (ESE)    
Max Wind Speed 15 mph    
Max Gust Speed 24 mph    
Visibility 10 miles    
Events      
Averages and records for this station are not official NWS values.
T = Trace of Precipitation, MM = Missing Value Source: NWS Daily Summary

Daily Weather History Graph

Daily Weather History Graph

Search for Another Location

Airport or City:

Trip Planner

Search our weather history database for the weather conditions in past years. The results will help you decide how hot, cold, wet, or windy it might be!

Date:

Astronomy

May. 02, 2013 Rise Set
Actual Time 5:33 AM EDT 7:50 PM EDT
Civil Twilight 5:01 AM EDT 8:23 PM EDT
Nautical Twilight 4:21 AM EDT 9:03 PM EDT
Astronomical Twilight 3:36 AM EDT 9:48 PM EDT
Moon 1:36 AM EDT (5/2) 12:19 PM EDT (5/2)
Length of Visible Light 15h 22m
Length of Day
14h 17m
Waning Gibbous, 48% of the Moon is Illuminated
May 2
Waning Gibbous
May 9
New
May 18
First Quarter
May 25
Full
May 31
Last Quarter

Hourly Weather History & Observations

Time (EDT) Temp. Windchill Dew Point Humidity Pressure Visibility Wind Dir Wind Speed Gust Speed Precip Events Conditions
12:52 AM 37.9 °F - 34.0 °F 86% 30.45 in 10.0 mi Calm Calm - N/A   Clear
1:52 AM 36.0 °F - 33.1 °F 89% 30.44 in 10.0 mi Calm Calm - N/A   Clear
2:52 AM 33.1 °F - 30.9 °F 92% 30.43 in 10.0 mi Calm Calm - N/A   Clear
3:52 AM 32.0 °F - 30.0 °F 92% 30.44 in 10.0 mi Calm Calm - N/A   Clear
4:52 AM 34.0 °F - 30.9 °F 89% 30.44 in 10.0 mi Calm Calm - N/A   Clear
5:52 AM 30.9 °F - 28.9 °F 92% 30.46 in 10.0 mi Calm Calm - N/A   Clear
6:52 AM 37.9 °F - 34.0 °F 86% 30.46 in 10.0 mi Calm Calm - N/A   Partly Cloudy
7:52 AM 45.0 °F - 37.0 °F 74% 30.47 in 10.0 mi Calm Calm - N/A   Scattered Clouds
9:52 AM 64.9 °F - 37.0 °F 36% 30.44 in 10.0 mi Calm Calm - N/A   Scattered Clouds
10:52 AM 71.1 °F - 32.0 °F 24% 30.43 in 10.0 mi Calm Calm - N/A   Mostly Cloudy
11:52 AM 79.0 °F - 34.0 °F 20% 30.40 in 10.0 mi Variable 5.8 mph - N/A   Scattered Clouds
12:52 PM 75.9 °F - 34.0 °F 22% 30.39 in 10.0 mi Variable 6.9 mph - N/A   Overcast
1:52 PM 75.0 °F - 35.1 °F 23% 30.39 in 10.0 mi ESE 12.7 mph 19.6 mph N/A   Mostly Cloudy
2:52 PM 71.1 °F - 36.0 °F 28% 30.41 in 10.0 mi SE 15.0 mph 24.2 mph N/A   Mostly Cloudy
3:52 PM 68.0 °F - 37.0 °F 32% 30.43 in 10.0 mi ESE 9.2 mph - N/A   Overcast
4:52 PM 66.9 °F - 37.0 °F 33% 30.43 in 10.0 mi ESE 8.1 mph - 0.00 in   Overcast
5:52 PM 64.0 °F - 37.0 °F 37% 30.44 in 10.0 mi ESE 4.6 mph - N/A   Mostly Cloudy
6:52 PM 62.1 °F - 37.0 °F 39% 30.44 in 10.0 mi East 6.9 mph - N/A   Overcast
7:52 PM 60.1 °F - 37.9 °F 44% 30.46 in 10.0 mi Calm Calm - N/A   Overcast
8:52 PM 50.0 °F - 39.9 °F 68% 30.47 in 10.0 mi Calm Calm - N/A   Partly Cloudy
9:52 PM 46.0 °F 44.8 °F 39.0 °F 76% 30.47 in 10.0 mi North 3.5 mph - N/A   Clear
10:52 PM 41.0 °F 39.0 °F 37.0 °F 86% 30.48 in 10.0 mi Variable 3.5 mph - N/A   Clear
11:52 PM 35.1 °F - 32.0 °F 89% 30.49 in 10.0 mi Calm Calm - N/A   Clear